Location: Boiro
(42.6475°N, 8.8834°W)
Time: 19:04:39
(UTC+01:00)

Tiros 1 - Pass Details

Date: 13 December 2021
Orbit: 630 x 663 km, 48.4° (Epoch: 20 January)

Event Time Altitude Azimuth Distance (km) Brightness Sun altitude
Rises 23:37:40 0° 286° (WNW) 2,940 - -59.7°
Reaches altitude 10° 23:40:43 10° 265° (W) 2,034 - -60.2°
Maximum altitude 23:43:39 17° 227° (SW) 1,647 - -60.6°
Drops below altitude 10° 23:46:35 10° 188° (S) 2,041 - -61.1°
Sets 23:49:39 0° 167° (SSE) 2,954 - -61.5°
